Location: Boiro
(42.6475°N, 8.8834°W)
Time: 18:15:04
(UTC+01:00)

Transit 2A Rocket - Pass Details

Date: 05 December 2021
Orbit: 585 x 917 km, 66.7° (Epoch: 26 January)

Event Time Altitude Azimuth Distance (km) Brightness Sun altitude
Rises 15:17:57 0° 336° (NNW) 3,564 8.1 20.0°
Reaches altitude 10° 15:22:05 10° 2° (N) 2,612 7.3 19.6°
Maximum altitude 15:24:57 13° 30° (NNE) 2,354 7.0 19.4°
Drops below altitude 10° 15:27:46 10° 59° (ENE) 2,566 7.3 19.1°
Sets 15:31:44 0° 85° (E) 3,449 8.0 18.8°
